La Push, WA

6:52 AM PST on February 09, 2016 (GMT -0800)
Quillayute

Weather History for KUIL - March, 2014

Change the Weather History Date:

Monday, March 31, 2014

  Actual Average Record
Temperature  
Mean Temperature 48 °F 45 °F  
Max Temperature 59 °F 53 °F 71 °F (1987)
Min Temperature 36 °F 38 °F 25 °F (1975)
Degree Days  
Heating Degree Days 17 20  
Month to date heating degree days 586 648  
Since 1 July heating degree days 3780 4493  
Cooling Degree Days 0 0  
Month to date cooling degree days 0 0  
Year to date cooling degree days 0 0  
Moisture  
Dew Point 39 °F    
Average Humidity 74    
Maximum Humidity 100    
Minimum Humidity 47    
Precipitation  
Precipitation 0.00 in 0.33 in 1.23 in (2011)
Month to date precipitation 15.81 10.83  
Year to date precipitation 38.38 35.79  
Sea Level Pressure  
Sea Level Pressure 29.81 in    
Wind  
Wind Speed 6 mph (ENE)    
Max Wind Speed 14 mph    
Max Gust Speed 18 mph    
Visibility 7 miles    
Events      
T = Trace of Precipitation, MM = Missing Value Source: NWS Daily Summary

Daily Weather History Graph

Daily Weather History Graph

Search for Another Location

Airport or City:

Trip Planner

Search our weather history database for the weather conditions in past years. The results will help you decide how hot, cold, wet, or windy it might be!

Date:

Astronomy

Mar. 31, 2014 Rise Set
Actual Time 6:58 AM PDT 7:47 PM PDT
Civil Twilight 6:27 AM PDT 8:18 PM PDT
Nautical Twilight 5:49 AM PDT 8:56 PM PDT
Astronomical Twilight 5:10 AM PDT 9:35 PM PDT
Moon 7:20 AM PDT (3/31) 9:19 PM PDT (3/31)
Length of Visible Light 13h 51m
Length of Day
12h 48m
New Moon, 1% of the Moon is Illuminated
Mar 31
New Moon
Apr 7
First Quarter
Apr 15
Full
Apr 22
Last Quarter
Apr 28
New

Hourly Weather History & Observations

Time (PDT) Temp. Windchill Dew Point Humidity Pressure Visibility Wind Dir Wind Speed Gust Speed Precip Events Conditions
12:53 AM 39.0 °F 33.4 °F 37.9 °F 96% 29.94 in 7.0 mi East 8.1 mph - N/A   Clear
1:53 AM 37.9 °F 34.4 °F 37.0 °F 97% 29.94 in 7.0 mi East 4.6 mph - N/A   Clear
2:53 AM 37.0 °F 32.4 °F 36.0 °F 96% 29.93 in 8.0 mi ENE 5.8 mph - N/A   Clear
3:53 AM 37.0 °F 32.4 °F 36.0 °F 96% 29.91 in 8.0 mi ENE 5.8 mph - N/A   Clear
4:53 AM 37.0 °F 31.6 °F 36.0 °F 96% 29.89 in 8.0 mi East 6.9 mph - N/A   Clear
5:53 AM 36.0 °F 31.1 °F 35.1 °F 97% 29.87 in 8.0 mi NE 5.8 mph - N/A   Clear
6:53 AM 37.0 °F 32.4 °F 36.0 °F 96% 29.85 in 7.0 mi East 5.8 mph - N/A   Clear
7:53 AM 39.9 °F 35.1 °F 37.9 °F 93% 29.84 in 7.0 mi NE 6.9 mph - N/A   Clear
8:53 AM 41.0 °F 39.0 °F 37.9 °F 89% 29.84 in 7.0 mi East 3.5 mph - N/A   Clear
9:53 AM 44.1 °F 41.5 °F 39.9 °F 85% 29.83 in 7.0 mi East 4.6 mph - N/A   Clear
10:53 AM 50.0 °F - 39.9 °F 68% 29.81 in 7.0 mi ENE 11.5 mph - N/A   Clear
11:53 AM 54.0 °F - 42.1 °F 64% 29.80 in 7.0 mi NE 10.4 mph - N/A   Clear
12:53 PM 55.0 °F - 39.9 °F 57% 29.78 in 7.0 mi ENE 6.9 mph - N/A   Clear
1:53 PM 57.9 °F - 41.0 °F 53% 29.76 in 7.0 mi ENE 10.4 mph - N/A   Partly Cloudy
2:53 PM 57.9 °F - 39.9 °F 51% 29.75 in 7.0 mi NNE 9.2 mph - N/A   Mostly Cloudy
3:53 PM 59.0 °F - 39.9 °F 49% 29.75 in 7.0 mi NE 10.4 mph - N/A   Partly Cloudy
4:53 PM 57.0 °F - 39.0 °F 51% 29.75 in 6.0 mi North 3.5 mph - N/A   Haze
5:53 PM 55.0 °F - 39.9 °F 57% 29.74 in 7.0 mi ENE 4.6 mph - N/A   Partly Cloudy
6:53 PM 52.0 °F - 39.0 °F 61% 29.74 in 7.0 mi NE 6.9 mph - N/A   Partly Cloudy
7:53 PM 48.0 °F - 39.0 °F 71% 29.73 in 7.0 mi North 5.8 mph - N/A   Clear
8:53 PM 45.0 °F - 39.9 °F 82% 29.74 in 8.0 mi Calm Calm - N/A   Mostly Cloudy
9:53 PM 43.0 °F 41.3 °F 41.0 °F 93% 29.74 in 8.0 mi ENE 3.5 mph - N/A   Overcast
10:53 PM 44.1 °F - 41.0 °F 89% 29.73 in 7.0 mi Calm Calm - N/A   Overcast
11:53 PM 43.0 °F 40.3 °F 41.0 °F 93% 29.73 in 8.0 mi ENE 4.6 mph - N/A   Overcast